sat.trackr.live / text

‹ back to catalog

PVSAT

NORAD 52894 · 2022-065A

PAYLOAD ACTIVE UNKNOWN

§ Identity

Operator
Country
SKOR
Launch date
2022-06-21
Launch site
NSC
Launch vehicle
Mass (kg)
RCS (m²)

External: N2YO · Heavens-Above · Gunter

§ Orbital elements

Epoch: 2026-09-20T08:22:42.808512Z

Period
98.66 min
Inclination
98.2429°
Eccentricity
0.0010581
Mean motion
14.59588522 rev/d
Perigee alt
687.0 km
Apogee alt
702.0 km
Semi-major
7,072.6 km
B*
4.0818e-5
RAAN
42.0291°
Arg perigee
83.1479°
Mean anomaly
277.0925°
Rev number
22,623

§ Raw data

PVSAT1 52894U 22065A   26263.34910658  .00000147  00000+0  40818-4 0  99942 52894  98.2429  42.0291 0010581  83.1479 277.0925 14.59588522226235

JSON: /api/v1/satellites/52894 · /tle

For live sub-satellite position, see the globe view (requires WebGL).

§ Visibility from observer

Set your observer location to see the next 7 days of passes ≥ 10°. The values pass through the URL so the page stays shareable.

No JS? Fill the form by hand. The geolocation button needs JavaScript.